Main page
METAR-TAF:

METAR-TAF

Airports :

Bandar Lengeh, Iran

Bandar Lengeh Airport

latitude: 26-35N, longitude: 054-50E, elevation: 14 m

Current weather observation

The report was made 48 minutes ago, at 09:00 UTC
Wind 8 kt from the Southeast
Temperature 32°C
Humidity 67%
Pressure 1008 hPa
Visibility: 6000 m

METAR: OIBL 220900Z 14008KT 6000 NSC 32/25 Q1008

Time: 13:18 (09:48 UTC)


TAF: missing

Weather observations and forecasts of more than 4000 airports (METAR and TAF reports).

The available stations are represented by yellow and red dots on the map.

Hover mouse over dot to see the name of the station.

Then click to see weather observations and forecasts.

To change the map : click on the green buttons with a black cross to zoom in, on the green button with a dash to zoom out, or on the green arrows for adjacent maps.


METAR-TAF: